Regional Weather Roundup
Issued by NWS

Home | Current Version | Previous Version | Graphics & Text | Print | Product List | Glossary On
Versions: 1 2 3 4 5 6 7 8 9 10 11 12 13 14 15 16 17 18 19 20 21 22 23 24 25 26 27 28 29 30 31 32 33 34 35 36 37 38 39 40 41 42 43 44 45 46 47 48 49 50
000
ASUS43 KLMK 281402
RWRKY
KENTUCKY REGIONAL WEATHER ROUNDUP
NATIONAL WEATHER SERVICE LOUISVILLE KY
1000 AM EDT THU MAY 28 2015

NOTE "FAIR" INDICATES FEW OR NO CLOUDS BELOW 12,000 FEET
WITH NO SIGNIFICANT WEATHER AND/OR OBSTRUCTIONS TO VISIBILITY.

KYZ001>023-026-027-061>063-070>075-281500-
WESTERN AND SOUTH CENTRAL KENTUCKY

CITY           SKY/WX    TMP DP  RH WIND       PRES   REMARKS
PADUCAH        MOSUNNY   74  65  73 SW3       30.17F
HENDERSON      PTSUNNY   73  66  78 S3        30.19R
OWENSBORO      MOSUNNY   75  68  79 SW6       30.21R
HOPKINSVILLE   PTSUNNY   69  67  90 E6        30.21S
BOWLING GREEN  CLOUDY    72  65  78 SE6       30.23R
GLASGOW        NOT AVBL
$$

KYZ024-025-028>034-038-045-046-053-281500-
NORTH CENTRAL KENTUCKY

CITY           SKY/WX    TMP DP  RH WIND       PRES   REMARKS
LOUISVILLE/SDF CLOUDY    70  66  87 CALM      30.21R FOG
LOUISVILLE/LOU CLOUDY    71  66  84 CALM      30.21S HAZE
FORT KNOX      LGT RAIN  67  67 100 E1        30.20S
$$

KYZ035>037-039>044-047>052-055>060-089>105-281500-
NORTHEAST KENTUCKY

CITY           SKY/WX    TMP DP  RH WIND       PRES   REMARKS
LEXINGTON      CLOUDY    69  65  86 CALM      30.24R FOG
COVINGTON      CLOUDY    67  64  90 CALM      30.23R FOG
FRANKFORT      CLOUDY    66  63  90 CALM      30.22S
$$

KYZ054-064>069-076>088-106>120-281500-
SOUTHEAST KENTUCKY

CITY           SKY/WX    TMP DP  RH WIND       PRES   REMARKS
JACKSON        PTSUNNY   71  63  75 CALM      30.25S
LONDON         RAIN      67  62  84 CALM      30.26S
SOMERSET       NOT AVBL
MIDDLESBORO    PTSUNNY   68  67  95 CALM      30.26F
MONTICELLO     CLOUDY    72  69  90 S5        30.28R
$$




USA.gov is the U.S. government's official web portal to all federal, state and local government web resources and services.